Location: Alta
(39.2070°N, 120.8111°W)
Time: 01:36:55
(UTC+00:00)

ITAMSAT 1 - Pass Details

Date: 02 April 2023
Orbit: 782 x 797 km, 98.8° (Epoch: 29 May)

Event Time Altitude Azimuth Distance (km) Brightness Sun altitude
Rises 02:56:26 0° 141° (SE) 3,275 10.4 -6.5°
Reaches altitude 10° 02:58:55 10° 132° (SE) 2,352 9.6 -6.9°
Maximum altitude 03:03:35 35° 68° (ENE) 1,269 8.3 -7.8°
Drops below altitude 10° 03:08:17 10° 5° (N) 2,373 10.3 -8.7°
Sets 03:10:47 0° 356° (N) 3,308 11.1 -9.2°
